Location: *
(51.8167°N, 12.5000°E)
Time: 20:09:54
(UTC+00:00)

Timation 2 Rocket - Pass Details

Date: 16 September 2019
Orbit: 908 x 1074 km, 70.0° (Epoch: 16 October)

Event Time Altitude Azimuth Distance (km) Brightness Sun altitude
Rises 18:38:30 0° 205° (SSW) 3,782 7.1 -12.2°
Reaches altitude 10° 18:41:07 10° 204° (SSW) 2,811 6.5 -12.5°
Maximum altitude 18:47:41 80° 119° (ESE) 1,015 4.0 -13.5°
Drops below altitude 10° 18:54:01 10° 34° (NE) 2,709 6.2 -14.4°
Sets 18:56:30 0° 34° (NNE) 3,636 6.9 -14.7°
